Powrót do katalogu

SL-8 R/B

AktywnyPO
NORAD 28910·ROCKET BODY·🇷🇺 Russia

Wystrzelony Dec 21, 2005 z Plesetsk Cosmodrome

Loading…

Następne Przeloty (najbliższe 24 godziny)

TLE

ŚwieżeSource: Space-Track

Epoka: Sep 14, 2026, 23:17 UTC

1 28910U 05048C   26257.97032899 -.00000029  00000-0 -24368-3 0  9995
2 28910  82.4617 255.4307 0015965 259.8184 127.0317 12.54966759949668

Śledź SL-8 R/B w czasie rzeczywistym z AllMySat

Download on the App Store